Location: A�t Bou Chrif
(32.7193°N, 5.2385°W)
Time: 03:11:17
(UTC+00:00)

Cosmos 2278 - Pass Details

Date: 08 August 2020
Orbit: 839 x 853 km, 71.1° (Epoch: 20 September)

Event Time Altitude Azimuth Distance (km) Brightness Sun altitude
Rises 21:51:14 0° 342° (NNW) 3,424 7.8 -28.9°
Reaches altitude 10° 21:53:43 10° 344° (NNW) 2,484 6.9 -29.3°
Enters shadow 21:58:33 61° 15° (NNE) 960 4.0 -30.0°
